Probability
0 0 0 0 0 0 0 0 1 3 4 5 9 12 12 13 17 23 29 30 31 34 37 36 35 37 41 41 40 42 42 38 37 38 37 36 37 37 38 37 34 31 29 28
0 0 0 0 0 1 1 1 2 3 4 6 10 14 16 17 20 24 28 29 30 35 39 37 36 38 41 43 43 43 41 39 40 41 40 38 39 40 40 39 36 33 31 29
0 0 0 0 1 2 4 4 4 4 6 8 12 18 22 25 28 29 30 30 31 36 40 38 36 38 42 45 44 42 40 39 41 43 44 44 44 46 47 44 41 38 34 31
0 0 0 0 1 3 5 6 5 6 8 12 17 22 26 31 35 36 36 36 34 35 37 37 37 40 44 45 44 42 41 41 42 45 49 50 50 51 52 48 46 44 39 35
0 0 0 0 1 2 3 5 5 6 11 16 19 23 28 34 40 43 44 42 38 36 37 40 42 44 47 46 45 44 44 44 45 48 51 53 54 54 54 52 50 47 42 38
0 0 0 0 1 2 2 4 6 9 14 18 20 25 31 37 41 45 47 45 42 40 43 47 48 50 50 48 47 48 47 46 46 49 52 54 55 55 54 53 51 47 42 38
1 0 0 1 2 4 8 10 11 13 16 20 25 30 35 39 41 42 43 43 42 45 49 52 52 53 52 50 50 49 47 46 45 47 49 52 54 55 55 52 49 45 41 37
5 4 5 6 7 10 16 17 15 16 19 24 29 33 35 37 38 39 40 40 41 46 51 53 53 53 54 54 51 47 45 45 45 44 44 47 50 51 52 49 44 39 36 33
11 10 11 12 12 15 18 17 15 17 21 24 28 31 32 34 34 34 36 38 41 46 49 49 49 50 54 56 53 47 44 46 48 45 43 43 44 44 45 43 38 33 30 29
14 12 11 12 12 13 14 14 14 18 22 25 28 30 30 32 31 30 31 34 38 42 43 42 42 46 53 57 55 49 47 49 51 48 45 43 40 38 38 38 36 33 30 29
13 11 10 10 10 10 11 13 16 20 23 24 27 30 31 31 31 30 29 30 33 35 36 37 38 42 49 55 56 52 50 51 50 46 45 44 38 32 30 32 32 29 27 28
14 15 14 12 11 9 10 14 18 21 22 22 24 28 31 31 31 30 30 29 29 31 32 33 35 39 43 48 52 53 50 47 45 43 43 41 35 27 21 20 17 14 15 17
17 17 16 14 13 11 13 16 18 19 20 22 23 26 28 28 28 27 27 26 25 27 28 28 30 33 35 39 45 48 45 38 36 37 38 36 32 27 22 16 10 6 5 5
17 16 15 15 15 14 14 16 17 18 21 23 24 25 25 26 26 26 24 21 20 22 23 23 24 27 28 32 38 41 38 31 29 30 32 32 29 28 27 23 17 11 5 1
14 14 14 14 15 14 14 15 16 18 20 21 21 21 22 23 24 24 21 18 17 19 21 22 22 23 25 27 33 37 35 30 27 26 27 28 26 26 27 25 21 17 11 5
13 12 12 13 13 14 14 15 16 17 16 15 16 18 20 21 20 19 18 17 17 18 21 25 24 23 23 25 30 35 34 31 29 28 26 25 25 26 27 25 22 20 16 12
11 11 12 12 12 13 14 15 15 15 14 13 14 16 18 19 18 17 17 18 18 19 21 25 25 22 21 23 26 30 30 28 28 31 29 26 28 29 29 26 23 21 19 17
10 10 11 11 12 13 13 13 14 14 14 13 13 14 14 15 16 17 16 16 17 17 18 19 19 18 19 21 24 25 26 25 26 30 30 28 30 33 31 28 23 20 19 17
7 8 10 10 12 13 13 12 12 13 14 12 11 11 11 11 13 14 13 12 12 13 13 13 14 17 19 22 24 25 24 24 25 28 28 28 30 33 32 29 22 18 16 15
6 7 9 11 12 13 13 11 10 11 11 9 7 7 9 9 9 9 9 7 8 9 9 10 13 16 19 22 24 25 25 24 24 25 26 26 27 30 30 26 18 14 14 14
9 9 11 14 14 13 10 8 6 7 7 6 3 4 7 7 5 5 5 5 5 7 6 7 10 14 16 18 21 24 24 23 23 25 25 25 25 26 26 20 14 12 13 14
11 10 11 13 13 10 7 4 3 3 4 3 1 2 4 5 3 3 4 4 3 4 5 5 7 9 11 14 18 21 22 22 23 25 25 24 23 23 22 17 13 12 13 14
8 8 7 8 8 7 4 1 1 2 2 1 1 2 3 3 3 3 3 3 3 3 5 6 6 7 9 14 17 17 18 20 22 23 22 21 21 21 18 15 12 12 12 12
5 4 4 4 4 4 3 2 2 3 2 2 1 2 2 2 4 4 4 4 5 5 6 6 6 7 9 14 16 15 17 20 21 20 19 19 20 18 16 12 10 10 10 10
3 3 3 3 3 3 4 3 3 2 2 2 2 3 3 3 5 6 6 5 5 6 5 5 6 8 11 14 16 16 17 19 19 18 16 17 18 17 14 11 9 9 9 10
3 3 3 3 2 2 2 1 1 1 1 2 4 5 5 4 5 6 6 5 4 3 3 3 5 8 11 13 13 13 13 14 15 14 14 14 15 15 13 12 11 10 9 9
3 3 3 2 1 1 0 0 0 1 2 3 5 6 5 4 4 4 4 2 1 1 1 2 4 8 10 11 10 10 9 9 10 11 11 11 12 13 13 12 12 11 9 8
Wind_Speed
12 12 11 10 10 10 10 10 7 4 4 3 1 4 5 5 6 6 6 5 5 5 4 3 3 3 4 5 5 5 6 6 5 5 4 4 3 3 3 3 3 2 2 2
12 13 12 13 12 11 11 9 7 5 4 1 4 6 5 4 5 5 5 4 4 5 4 3 3 3 3 4 4 4 5 4 4 4 4 4 3 3 3 3 2 2 2 2
11 12 12 14 12 11 8 6 5 4 1 1 3 5 5 4 5 4 3 2 3 4 4 4 3 3 3 4 4 4 4 4 4 4 4 4 4 3 3 3 2 2 2 1
9 10 14 7 5 6 4 2 1 1 3 3 3 5 5 5 5 5 4 3 2 1 3 3 3 3 3 4 4 4 4 4 4 4 4 3 3 3 3 2 2 2 2 1
8 11 12 7 5 5 5 2 1 1 2 2 2 4 5 7 6 5 4 3 2 1 2 2 2 2 2 3 4 4 4 4 4 4 4 4 4 3 3 3 2 2 2 2
9 11 10 4 4 4 3 3 2 2 3 3 2 1 4 7 7 6 5 4 3 2 2 2 2 2 2 3 3 4 4 4 4 4 4 4 4 3 3 3 3 3 2 3
12 11 5 4 6 6 6 0 4 3 3 2 4 4 5 5 5 5 4 4 4 3 3 2 1 1 2 2 2 3 3 3 3 4 4 4 3 3 3 3 3 3 3 2
10 11 6 2 3 3 4 4 4 4 4 4 5 4 5 5 4 4 4 4 4 3 3 2 2 2 1 1 0 1 2 3 3 3 4 4 3 3 3 3 3 3 2 2
3 2 3 4 5 5 3 3 3 3 4 4 4 4 5 4 4 4 3 3 3 3 3 2 2 1 0 0 1 1 2 2 2 3 3 3 3 3 3 3 4 3 3 4
3 2 1 2 3 3 3 2 2 3 3 3 3 3 3 2 2 2 2 3 3 3 3 3 2 1 1 1 2 2 2 2 2 3 4 3 3 4 4 4 4 4 3 3
4 4 3 1 1 2 2 2 3 3 2 2 2 1 1 1 1 1 2 2 2 2 2 2 2 2 2 1 1 2 2 2 3 3 3 3 3 2 4 4 4 4 3 3
4 2 3 2 1 1 0 0 1 2 2 2 1 1 1 1 1 1 1 1 1 2 2 2 2 3 3 2 1 2 2 2 3 3 2 3 3 2 2 1 3 3 4 3
3 4 4 4 4 3 2 2 2 1 2 2 2 2 2 1 1 1 1 1 1 2 2 2 2 3 3 2 2 2 3 3 3 3 3 4 4 4 2 1 1 1 3 3
3 4 5 5 5 4 4 3 3 3 2 2 2 2 2 2 1 2 2 2 2 2 3 3 3 3 3 3 3 3 4 4 4 4 4 4 4 4 3 3 2 1 1 2
5 5 6 6 5 4 4 3 4 3 3 3 3 3 2 2 2 2 2 3 3 3 3 3 4 4 4 4 4 5 4 3 3 3 3 3 3 3 3 3 2 2 1 1
6 6 6 6 6 5 5 6 5 4 4 4 3 3 3 3 3 3 3 3 3 3 3 3 4 4 4 4 5 4 3 4 4 4 4 3 3 3 3 3 3 3 2 2
7 6 5 6 7 7 7 7 6 4 4 4 3 3 4 4 4 3 3 3 2 3 3 3 3 4 4 4 5 5 4 3 4 4 4 3 3 3 3 3 2 2 2 3
6 7 7 8 7 7 7 6 5 5 5 4 4 4 4 4 4 4 4 3 2 2 3 3 3 4 4 4 4 4 4 3 3 3 3 3 3 3 3 2 2 2 2 2
6 7 8 8 8 6 6 5 5 5 5 4 5 4 4 4 4 3 3 4 3 3 2 2 4 5 4 4 5 4 4 3 3 3 2 2 2 2 2 2 2 2 2 2
6 7 7 7 6 5 5 5 4 4 5 5 5 4 3 3 3 3 3 3 2 2 2 3 4 5 4 3 5 4 3 3 3 2 2 2 1 1 1 1 1 1 2 2
5 5 5 5 4 4 4 4 4 4 5 4 5 4 3 3 3 3 3 3 1 1 3 4 3 3 3 4 4 3 3 2 2 2 1 1 1 1 1 1 1 0 1 1
3 3 3 3 4 4 4 4 4 5 5 4 4 4 3 3 3 3 2 2 1 2 3 3 3 2 4 5 3 3 3 2 2 1 1 1 1 1 1 1 1 1 0 1
3 3 3 3 4 4 4 4 4 4 4 3 3 4 4 3 3 3 2 1 2 3 3 2 2 2 4 3 3 2 2 2 2 2 1 1 1 2 1 1 1 1 1 1
3 3 3 4 4 4 4 3 3 3 3 3 3 3 3 3 2 2 2 2 2 2 2 0 1 2 2 2 3 2 2 1 1 1 1 1 1 1 1 1 1 2 1 1
3 3 4 4 4 3 3 2 2 2 3 2 3 3 2 2 2 2 1 1 1 2 2 1 3 3 2 2 2 2 1 0 1 1 1 1 1 1 1 1 1 1 1 1
3 3 3 3 3 3 3 2 2 1 1 1 1 1 1 1 2 2 1 2 2 2 1 1 1 2 2 1 1 1 1 1 1 1 1 0 1 1 1 1 1 1 1 2
3 3 2 2 3 3 2 2 1 1 1 0 1 0 0 1 1 1 1 1 1 1 1 0 0 0 1 0 0 1 1 0 0 0 0 1 1 1 1 2 2 2 2 2
Wind_Direction
264 272 276 267 260 249 251 259 260 249 247 249 128 115 121 132 134 129 125 126 129 132 131 140 149 156 163 170 169 171 171 181 183 181 181 184 190 190 188 203 212 200 207 216
264 262 268 271 264 253 249 255 252 251 257 358 66 74 85 91 110 118 126 138 140 140 141 147 152 164 173 164 161 161 170 180 172 174 180 183 190 187 193 201 203 200 205 221
261 266 261 256 258 256 254 254 259 250 290 79 81 78 67 70 86 83 93 121 146 157 156 162 165 165 179 169 162 166 173 178 170 174 183 187 196 191 198 199 198 209 208 193
259 259 255 258 271 253 254 269 13 76 71 67 98 101 74 68 74 72 59 59 68 145 158 163 169 169 176 179 167 172 179 183 174 177 187 186 195 197 192 190 195 200 205 203
254 250 251 252 251 250 242 245 63 94 86 65 70 99 76 67 66 54 49 49 58 61 125 126 152 155 158 177 174 180 185 184 180 181 186 191 194 192 187 185 192 202 193 197
252 255 254 263 296 296 260 223 85 78 65 47 348 261 80 58 55 47 37 38 37 54 76 82 97 138 162 186 182 184 187 183 183 184 190 193 194 192 193 188 198 214 207 199
244 254 251 298 309 283 244 171 68 66 73 65 43 37 80 75 64 62 49 47 44 46 65 80 76 116 150 169 188 189 180 174 181 186 194 193 185 185 182 197 207 218 215 210
240 248 240 333 300 345 59 54 57 59 65 71 85 87 81 71 65 62 55 48 40 42 54 75 85 100 103 133 152 168 171 178 183 185 209 197 175 185 198 212 210 214 218 222
270 260 77 66 77 77 72 60 47 61 75 90 85 82 78 68 65 56 42 38 24 29 37 52 77 75 30 177 173 196 186 187 189 192 205 187 182 199 211 213 221 223 220 226
282 271 75 64 65 78 69 53 36 61 78 87 91 84 67 51 48 51 28 28 21 20 21 26 27 323 270 246 192 211 211 202 202 207 206 190 188 203 217 220 224 221 219 222
238 258 283 331 13 39 65 46 35 42 47 63 67 55 52 46 45 39 21 18 15 1 358 7 357 333 307 305 255 238 240 227 222 224 209 194 204 211 218 223 229 220 226 226
262 282 277 279 295 277 298 344 10 6 6 18 351 322 328 358 30 24 343 350 345 334 333 335 337 339 338 332 305 266 249 242 241 235 212 212 214 238 350 266 223 209 211 218
313 316 314 301 300 291 273 278 281 280 288 301 307 317 316 310 317 318 319 320 322 321 325 329 328 331 330 313 289 264 251 245 249 246 221 220 220 216 220 280 302 233 210 200
319 312 292 289 286 283 275 282 290 280 271 271 271 280 286 291 292 302 304 299 300 302 306 311 312 311 318 317 286 262 254 238 241 243 228 221 226 228 223 218 219 248 310 179
284 277 271 276 271 264 265 260 263 270 270 262 256 260 269 281 284 286 298 301 302 298 305 304 299 305 315 314 301 285 275 263 249 248 245 233 230 230 228 223 220 215 211 166
274 263 260 265 262 258 259 255 253 254 263 265 266 270 274 272 274 278 275 279 280 286 295 295 295 305 310 305 297 282 275 270 267 256 248 237 232 236 234 221 216 215 214 187
266 261 264 267 260 254 254 253 252 251 261 266 269 276 276 273 269 270 270 268 268 274 282 288 292 297 297 294 292 284 281 273 266 260 249 244 232 228 230 230 225 216 216 195
263 265 266 269 268 263 264 262 259 260 261 265 261 261 263 269 275 277 280 283 279 279 287 300 313 300 291 290 289 283 278 271 261 259 263 262 249 234 221 216 217 218 208 184
259 259 264 265 265 261 263 265 267 270 271 267 262 263 262 263 267 268 270 268 266 271 295 316 298 287 287 297 297 279 271 265 259 254 260 257 246 240 225 221 220 213 206 188
260 263 267 270 270 268 267 267 270 272 271 271 271 270 267 268 265 255 260 263 276 298 308 309 297 295 294 300 292 279 275 272 264 245 238 231 236 229 203 220 237 236 207 190
272 271 274 276 279 276 277 276 268 264 269 267 262 258 259 264 266 255 257 255 240 274 279 275 275 287 301 310 289 284 282 278 263 245 243 233 198 152 153 162 188 230 260 224
295 292 296 301 300 293 290 283 274 264 260 257 257 261 261 256 255 250 235 255 260 271 268 273 283 316 323 307 284 277 272 269 266 242 222 216 170 167 146 158 202 176 230 227
295 297 293 289 286 287 289 279 267 255 256 254 255 259 259 265 264 262 254 238 237 260 265 291 323 320 319 298 288 275 267 263 263 242 217 208 189 185 179 181 181 158 157 153
303 307 299 293 282 273 274 272 267 249 238 236 238 243 248 250 246 243 240 213 227 243 258 292 211 274 287 283 282 268 239 220 230 256 249 218 236 192 144 142 143 126 124 156
299 296 297 295 286 279 276 267 260 254 240 234 234 226 228 232 241 248 224 172 188 226 240 199 208 233 253 284 295 306 292 197 260 272 241 213 213 126 107 118 118 122 142 145
291 287 289 291 290 289 286 280 270 259 244 237 230 227 216 198 217 224 212 199 198 218 244 228 174 194 232 267 284 301 290 163 199 259 264 109 99 96 100 94 87 103 109 101
291 292 287 281 278 282 285 280 278 281 283 275 259 196 204 170 193 205 215 206 211 231 227 223 243 203 212 239 20 359 342 32 104 238 255 86 83 89 107 105 98 85 83 90